Theta_e
343 344 349 349 351 355 355 355 355 355 355 355 354 353 354 353 353 352 351 350 348 348 348 348 348 349 348 349 349 349 350 350 351 351 351 350 351 351 350 348 348 349 349 349 349 348 348 348 348 347 348 349 348 348 348 348 348 348 346 345 346 347 349 349 348 348 347 349 350 350 350 349 350 351 351 352 352 351 350 350 350 348 350 350 350
341 347 350 352 351 355 356 356 355 355 354 355 354 353 353 353 352 351 351 350 348 348 348 348 348 348 348 348 349 349 350 351 351 350 350 350 350 350 351 350 349 348 348 348 348 347 347 347 347 347 347 346 346 345 345 345 345 345 345 345 345 346 347 348 348 348 348 347 348 348 349 349 349 350 351 350 351 351 349 349 349 349 348 350 350
346 347 349 352 349 354 355 356 355 355 355 354 354 354 353 353 352 351 351 349 348 348 347 347 348 348 348 349 350 350 350 349 349 349 349 349 349 350 350 350 350 349 349 348 348 347 347 346 346 345 344 343 343 342 342 342 342 343 343 344 344 345 346 347 347 347 347 346 347 347 347 347 347 348 349 349 350 349 348 348 348 348 350 350 349
343 346 350 350 346 350 354 355 355 355 354 354 353 353 353 352 352 351 351 350 348 347 347 347 347 347 347 350 349 350 349 349 348 348 349 349 348 349 349 349 348 348 348 348 347 347 346 346 345 344 343 342 342 341 340 339 339 340 341 342 344 344 345 346 346 347 345 345 346 346 347 348 346 346 347 348 348 347 345 346 347 348 349 349 348
343 345 349 352 353 350 352 354 355 355 355 354 354 353 353 352 352 351 350 350 348 348 346 346 346 347 348 348 349 349 349 348 348 347 348 348 348 348 348 349 348 348 348 348 347 347 346 346 345 344 342 341 340 339 339 338 337 337 338 340 342 344 345 345 346 345 344 344 345 344 345 347 348 346 346 346 346 345 344 344 344 346 345 346 347
342 345 349 350 352 355 349 353 355 354 355 354 354 353 353 352 352 351 351 350 349 347 346 347 347 347 348 349 348 348 348 348 348 347 347 348 348 348 347 348 349 348 347 347 347 346 346 346 344 343 342 340 340 339 338 337 336 336 336 337 341 342 344 344 344 343 343 342 344 344 344 346 346 346 346 347 346 345 345 345 344 344 344 344 344
341 345 349 349 352 352 347 352 355 354 354 354 353 353 353 352 351 351 351 350 349 347 346 346 347 348 348 348 348 347 347 347 347 346 346 347 347 348 347 348 348 348 347 347 346 346 346 345 344 342 341 339 338 337 336 336 335 334 335 337 340 342 344 343 342 341 340 343 344 344 342 344 346 347 346 345 346 345 345 345 344 343 343 343 343
342 346 349 349 351 350 346 352 355 354 354 354 353 353 352 352 351 351 350 350 349 348 346 346 346 347 348 348 347 347 347 346 347 347 346 346 346 346 346 347 347 348 347 346 346 345 346 344 343 341 339 338 336 334 334 333 333 332 333 336 338 341 342 341 339 340 341 342 344 344 344 343 345 346 345 345 346 345 345 345 344 343 342 342 341
340 345 349 349 350 345 345 348 355 355 354 354 353 353 352 352 351 351 350 350 349 348 347 346 346 346 348 348 348 346 347 346 346 346 345 345 345 346 347 347 346 346 346 346 345 345 344 344 343 340 338 337 334 332 330 329 329 330 332 335 339 341 339 339 338 338 342 344 344 344 344 344 344 345 345 345 345 344 344 343 343 342 342 340 340
340 345 348 349 349 342 345 347 354 355 355 354 353 353 353 352 351 351 350 350 350 348 347 346 345 346 348 347 347 347 347 346 346 345 345 345 346 345 345 346 346 346 346 344 345 344 343 343 341 339 339 337 332 330 328 327 327 330 332 336 338 339 337 338 339 340 343 344 344 343 346 344 344 345 344 344 344 344 342 341 341 341 341 339 339
342 345 348 350 350 341 346 350 352 352 354 354 353 353 352 352 351 351 350 350 350 349 347 347 345 346 347 347 347 347 346 347 346 345 345 345 346 346 346 346 346 346 345 345 344 343 342 342 341 340 338 335 331 328 327 326 326 329 332 336 337 337 336 336 337 339 341 341 342 342 344 342 343 344 344 344 344 343 341 341 341 341 341 340 339
341 344 347 349 344 339 344 347 349 353 353 353 352 352 352 352 351 351 350 350 350 349 348 348 345 346 348 347 348 347 347 347 346 345 344 345 345 346 345 346 346 345 345 344 342 341 343 343 341 339 336 333 330 327 326 325 326 330 333 335 336 335 334 334 338 337 339 339 340 342 342 341 341 343 343 344 343 341 340 340 340 340 339 338 337
340 341 344 347 349 339 342 346 347 351 352 353 353 353 352 352 351 351 350 350 349 349 349 348 348 347 347 347 347 347 347 347 346 345 345 345 345 345 346 346 345 345 344 343 341 342 341 342 341 338 335 333 329 326 325 325 327 329 333 334 334 334 333 331 335 337 337 339 340 341 341 343 343 343 343 342 342 340 339 339 339 337 337 335 335
337 339 341 344 346 341 337 340 343 348 351 352 351 353 352 350 351 351 350 350 349 348 349 348 348 348 347 347 347 346 347 346 346 345 345 346 345 345 345 345 344 343 343 341 340 340 342 342 340 337 334 331 328 325 324 324 326 329 331 333 333 332 330 331 333 336 336 337 339 340 341 341 341 343 340 340 339 339 338 337 337 336 334 332 331
336 338 340 341 343 346 337 336 340 342 347 349 350 351 352 351 351 351 350 350 350 349 349 348 348 348 348 347 347 347 346 347 346 345 345 345 345 345 345 344 343 342 342 341 340 340 340 341 339 336 333 331 327 325 324 324 326 327 330 331 330 328 326 333 334 334 335 337 337 339 340 341 339 342 338 337 337 336 336 335 335 333 331 330 330
335 337 338 340 342 345 346 341 335 336 341 344 346 348 349 350 350 349 350 349 349 349 349 348 348 348 347 347 347 347 347 346 345 344 342 344 344 344 343 342 342 342 341 340 339 341 340 339 337 334 332 329 327 324 324 324 325 327 329 329 327 325 324 325 334 334 334 334 335 337 338 339 338 337 337 337 338 336 335 335 334 332 330 329 329
332 336 338 339 340 342 344 346 343 333 334 335 339 342 344 347 349 349 349 349 349 348 348 349 348 348 348 346 347 347 346 345 345 344 343 343 343 343 345 342 342 342 340 339 339 341 340 338 335 333 331 328 326 324 324 324 324 326 328 328 326 324 322 321 334 333 333 334 335 335 337 338 339 337 335 339 335 335 334 333 332 330 328 327 329
332 334 335 337 338 339 341 343 345 346 349 342 335 336 340 345 345 345 346 346 346 347 348 348 347 347 346 346 344 343 345 346 344 344 343 342 343 342 344 342 341 341 339 339 340 340 338 336 334 332 330 327 325 324 323 323 323 326 327 325 324 322 321 321 333 332 332 332 333 335 336 335 337 337 337 336 334 333 333 332 331 328 325 326 330
324 327 332 333 334 337 339 341 342 345 347 348 349 347 334 338 342 342 342 342 344 344 344 343 342 344 343 341 339 338 337 337 338 340 341 338 337 336 342 342 341 339 339 340 340 339 337 335 333 331 329 327 325 322 322 321 322 324 324 322 319 317 316 324 331 332 333 332 333 334 334 333 335 335 336 335 334 334 333 331 329 326 328 329 329
320 319 320 322 325 332 336 339 340 342 345 346 347 347 338 332 336 338 339 339 339 340 340 338 336 335 337 336 330 336 332 338 328 340 333 338 335 337 337 339 342 340 338 340 339 338 336 335 333 331 328 326 324 322 321 320 320 321 321 319 318 314 329 326 328 330 331 331 332 333 330 333 334 335 334 333 333 332 331 329 326 326 327 328 328
316 315 316 316 319 322 330 335 338 340 342 344 346 347 346 331 334 332 333 336 335 335 336 332 328 326 329 327 326 347 347 347 344 347 328 343 331 328 333 337 341 341 340 340 339 338 336 335 333 331 327 323 321 318 317 317 316 317 317 316 313 325 324 325 326 327 329 328 330 332 327 331 331 333 332 331 330 330 329 327 325 327 328 328 327
313 313 315 314 315 317 321 328 335 337 339 342 344 345 347 339 349 349 347 343 334 330 342 348 338 347 324 337 346 344 346 345 346 338 346 345 338 324 328 335 339 337 338 340 339 338 336 334 333 330 326 322 318 326 319 312 311 313 313 311 322 320 322 323 324 325 326 327 326 326 326 331 330 331 331 330 329 329 327 326 327 328 328 327 327
311 312 314 314 314 315 317 318 328 335 338 340 342 344 344 346 345 346 346 337 342 346 348 347 348 345 343 347 343 344 345 345 344 341 342 331 341 323 327 332 335 333 336 338 339 337 335 334 332 330 325 320 326 326 322 317 314 307 309 316 317 317 320 321 322 323 324 324 325 320 324 328 330 330 329 329 327 328 328 327 327 327 326 326 324
310 311 312 314 314 315 316 317 321 329 335 338 341 342 343 344 345 344 344 346 346 345 348 347 348 348 346 347 346 346 346 346 329 325 331 344 341 324 323 326 330 328 330 335 334 335 334 334 331 327 324 325 328 324 322 316 312 311 311 310 313 316 317 317 318 320 320 323 323 316 320 325 328 330 329 329 328 327 327 328 327 326 326 326 326
309 311 313 312 314 314 316 317 318 325 332 336 337 340 342 343 344 346 343 343 345 344 345 344 344 346 346 344 345 344 345 345 345 344 344 342 343 343 340 337 338 338 327 339 337 337 334 335 332 328 331 330 327 325 323 318 313 311 309 308 309 312 314 315 316 316 317 318 320 313 316 320 325 329 331 330 328 327 327 328 326 326 326 325 325
309 310 310 311 313 315 317 317 318 321 329 335 336 339 340 341 342 342 344 344 344 341 342 343 344 344 345 345 344 344 344 343 344 343 341 342 341 339 342 341 341 338 335 336 337 337 336 336 334 333 330 330 327 324 320 317 314 311 310 309 308 309 310 310 311 314 314 314 317 310 313 316 320 325 327 330 330 328 326 327 327 327 326 326 325
308 309 310 310 314 315 316 318 317 320 330 334 336 338 339 341 342 344 343 341 340 340 342 342 342 343 342 341 341 341 340 341 341 341 340 341 340 341 340 339 338 338 338 335 335 335 335 334 334 333 331 328 326 323 317 313 312 311 310 308 308 308 308 310 309 309 311 311 313 308 310 313 314 319 323 326 328 330 328 327 327 327 327 326 326
308 307 309 310 312 312 316 319 319 322 329 333 335 337 338 339 340 341 341 340 342 340 342 341 341 341 341 341 339 340 340 340 340 340 341 340 339 339 340 338 337 337 336 336 335 334 334 334 333 332 330 328 327 322 319 314 311 312 311 309 308 307 308 308 309 310 310 310 311 311 309 311 311 312 316 321 324 326 329 332 334 327 328 328 325
305 306 307 308 309 310 316 320 321 323 329 333 332 336 337 339 341 340 338 338 340 341 339 339 339 338 339 338 338 338 338 337 337 339 339 338 340 339 339 338 338 336 336 335 333 332 332 332 331 331 329 328 327 324 321 317 317 316 315 311 309 308 308 308 308 309 310 309 310 310 307 309 311 312 312 314 317 321 325 329 333 333 326 327 326
304 306 305 307 307 309 315 320 323 325 330 332 334 335 337 338 336 338 338 338 338 337 335 336 336 336 335 334 336 337 338 337 337 338 337 337 339 337 336 336 336 335 335 334 332 331 331 331 331 327 325 326 325 324 322 321 319 319 318 317 314 313 311 308 309 308 309 309 310 310 306 307 309 311 312 314 313 317 320 325 330 332 332 327 327
304 304 305 305 306 309 315 320 324 326 331 333 334 335 335 333 332 330 328 329 329 328 328 327 327 327 328 329 331 333 334 334 335 335 336 336 338 336 336 336 335 334 334 333 334 332 331 329 326 324 323 324 324 322 323 323 322 319 317 317 316 314 313 311 309 309 308 309 310 310 312 305 307 308 312 314 313 314 317 320 324 329 332 332 332
302 303 303 305 307 310 316 320 322 326 329 329 328 325 324 324 324 325 323 322 322 322 322 322 320 321 322 323 324 325 327 329 330 331 331 331 332 332 332 328 328 332 332 332 331 330 328 326 323 322 322 323 323 321 319 320 322 321 318 317 315 315 313 312 311 310 310 310 310 310 310 312 307 306 310 311 312 314 314 318 321 324 328 330 330
303 302 303 305 306 309 316 319 321 322 322 321 321 321 320 319 318 318 318 319 319 318 318 317 318 319 320 321 321 322 324 326 326 325 325 325 325 325 325 323 323 324 325 325 326 325 324 323 322 321 321 320 320 318 317 319 320 319 318 317 316 315 313 313 314 313 313 313 312 310 310 310 310 309 307 308 312 313 314 315 319 321 324 328 330
300 302 304 304 305 308 314 318 319 318 317 318 318 317 315 315 315 316 315 315 314 314 314 314 314 315 316 317 319 320 321 322 324 324 323 322 321 321 320 320 322 322 321 321 321 320 320 320 318 321 316 316 317 319 318 319 320 318 318 316 316 316 315 315 314 315 314 314 312 311 309 309 308 309 311 309 308 310 312 314 316 318 321 323 326
301 302 302 303 305 308 313 315 315 315 314 313 313 312 313 312 311 311 311 311 310 310 310 311 311 311 312 314 315 317 318 319 321 320 319 319 318 317 317 318 320 321 319 319 319 318 317 315 315 316 316 315 315 316 315 315 314 315 316 316 317 316 316 315 315 314 313 313 311 310 309 308 308 309 310 308 308 307 309 312 314 316 318 321 322
300 300 301 304 305 307 310 313 313 312 311 311 311 310 309 308 307 306 307 308 307 307 307 307 307 308 309 309 310 313 315 315 316 317 316 317 317 316 316 317 317 317 317 317 317 316 315 314 314 315 314 314 315 316 314 312 311 311 311 314 316 315 316 316 315 315 314 312 311 309 309 308 308 307 306 306 307 308 306 309 312 314 316 317 319
298 299 300 304 305 306 308 310 311 310 309 307 307 306 306 305 304 303 303 303 303 304 304 305 305 304 304 305 306 308 311 312 312 313 313 315 315 314 315 316 317 316 316 315 314 313 314 314 312 313 315 314 314 313 311 310 309 309 309 311 314 314 315 315 315 314 312 310 310 309 308 307 307 304 306 307 307 308 307 305 308 310 311 312 315
298 299 301 302 304 305 306 307 309 308 307 306 305 305 304 304 303 302 302 301 301 301 302 303 302 302 303 302 304 305 307 309 310 310 310 310 311 311 311 312 313 314 314 313 313 313 312 312 310 309 309 312 310 309 308 306 306 306 306 306 310 311 312 312 312 308 309 309 308 308 307 306 306 306 306 306 307 307 308 308 307 307 307 309 312
298 298 300 302 304 304 305 306 307 308 308 307 305 304 304 303 302 302 301 301 300 300 300 300 300 301 301 302 303 303 304 307 309 309 308 308 309 308 308 309 308 308 307 308 309 310 310 310 311 309 306 304 304 304 303 303 304 304 304 306 308 309 310 309 308 307 307 307 305 304 306 305 305 305 305 305 305 306 307 307 306 307 308 309 310
297 298 299 300 302 304 305 305 306 307 308 308 307 306 305 304 302 302 300 299 298 298 299 299 299 299 300 301 302 302 303 304 306 307 307 307 308 308 308 308 307 307 305 305 306 305 305 307 307 308 309 307 306 305 305 304 305 305 304 307 308 308 308 307 306 306 305 306 306 305 304 304 304 304 305 305 304 305 305 306 304 306 307 308 309
296 297 298 298 299 301 303 302 303 305 307 307 307 306 304 302 300 299 297 298 297 297 296 297 297 298 298 299 300 300 301 301 302 303 304 304 305 305 306 306 306 305 304 304 305 305 305 306 307 305 306 305 303 303 304 304 304 308 308 308 308 309 307 305 304 304 306 307 306 304 303 303 304 304 304 303 304 305 305 305 305 306 306 306 307
295 296 296 297 298 300 300 301 303 303 303 304 303 301 301 300 298 296 296 295 295 294 294 294 294 295 295 296 297 298 299 299 300 301 301 302 302 302 302 303 304 303 303 303 303 302 304 305 305 306 307 304 303 303 303 304 305 303 303 305 307 309 308 305 302 304 308 307 304 303 304 303 302 303 303 303 304 304 304 304 304 305 305 305 306
294 294 296 297 297 298 299 300 301 301 301 301 301 300 300 299 297 295 294 292 293 293 292 292 293 293 293 294 294 295 296 296 297 298 298 299 300 300 300 301 301 302 301 301 301 301 301 302 302 302 304 305 304 304 303 303 301 302 305 303 304 302 306 303 305 307 307 305 302 305 304 303 302 303 303 303 304 304 304 304 303 304 304 305 305
294 294 294 295 296 297 297 298 299 299 299 298 297 297 297 296 296 294 294 293 291 292 292 292 292 292 291 292 293 293 293 294 294 295 295 295 296 297 297 298 299 300 300 299 299 299 300 300 301 300 301 301 301 301 302 302 301 299 298 300 301 300 299 303 300 303 306 303 303 305 303 302 304 305 304 303 303 302 303 303 303 303 304 303 304
292 292 293 293 294 295 296 297 297 298 298 298 297 297 295 294 294 294 294 293 293 292 291 290 291 291 291 291 292 293 293 293 293 294 294 294 294 294 294 294 295 296 296 295 295 295 297 298 299 299 299 299 299 299 300 301 301 301 298 297 299 300 298 298 298 301 303 304 305 305 302 304 304 303 302 301 303 303 303 303 303 303 304 304 304
291 291 291 292 294 295 296 296 297 297 297 297 298 299 297 295 294 293 291 290 289 289 288 289 289 290 290 292 292 292 293 293 293 293 293 293 293 294 294 293 293 293 294 293 293 293 294 294 296 297 297 298 299 297 297 300 301 300 300 299 298 294 293 295 296 295 301 303 303 302 303 303 303 301 301 301 302 302 302 302 303 303 303 303 303
290 291 291 291 292 293 294 295 295 295 296 296 296 295 294 294 293 292 291 289 288 289 290 291 290 291 292 291 291 292 292 292 292 292 293 293 293 293 293 293 293 293 293 293 293 293 293 293 294 294 294 295 296 294 294 296 299 298 299 299 299 299 298 295 292 294 292 297 299 300 301 302 301 300 300 301 301 301 301 301 302 302 302 303 302
290 290 291 291 291 292 292 293 293 293 294 294 294 294 293 292 292 291 290 290 289 289 290 290 291 291 291 291 291 291 292 292 292 292 292 292 292 292 292 292 292 292 292 292 292 292 293 293 293 293 293 293 293 292 291 292 292 292 296 296 297 298 298 298 297 294 292 290 293 299 300 300 299 299 300 300 300 300 300 300 301 301 300 301 301
289 290 290 290 291 291 291 291 291 291 292 292 292 293 292 292 291 291 289 290 290 290 290 291 291 291 290 291 291 291 291 291 291 291 291 291 291 291 291 291 290 290 290 291 291 291 291 291 291 291 291 291 291 292 291 290 291 290 291 292 293 293 295 296 297 296 292 290 290 292 292 296 297 297 297 297 298 298 298 299 300 300 300 300 301
289 289 289 290 290 290 290 290 289 290 290 291 291 291 292 292 291 290 290 289 290 290 291 290 290 291 290 290 290 290 290 290 290 290 290 290 290 290 290 290 290 289 289 290 290 290 290 290 291 291 291 290 291 290 290 290 291 291 291 291 289 289 291 291 292 291 291 293 289 289 290 289 288 291 294 295 295 294 296 298 298 299 300 300 301
288 289 289 289 290 290 289 288 288 289 290 290 291 291 291 291 291 291 290 290 290 290 290 290 290 290 289 289 289 289 290 289 289 289 289 290 289 289 289 289 289 289 288 288 288 289 289 289 290 290 289 289 289 291 291 291 291 290 290 289 288 288 288 287 287 288 288 287 287 287 288 288 288 287 292 294 293 293 295 296 296 298 299 300 300
Wind_Speed
8 8 10 11 9 9 13 14 14 14 14 12 12 11 12 12 11 11 11 10 10 10 10 10 9 9 9 10 9 10 9 9 9 9 9 8 8 7 8 9 10 12 13 13 13 13 13 12 12 12 13 13 14 14 14 14 14 13 13 14 13 13 13 12 12 11 11 11 12 12 12 12 12 12 13 14 14 14 13 14 10 10 9 11 14
11 8 9 12 8 8 12 14 14 14 14 14 13 12 12 12 11 11 10 10 9 9 9 9 9 9 9 9 9 9 9 9 9 9 9 8 8 9 9 9 9 12 12 13 12 12 12 12 12 13 13 13 13 13 13 13 13 12 12 12 12 11 11 10 10 10 9 9 9 9 10 12 12 13 13 13 14 15 14 13 13 9 10 14 15
3 9 9 13 8 6 10 12 13 13 14 14 13 12 13 12 12 11 11 10 9 8 8 9 9 9 9 9 9 9 9 9 9 9 9 9 9 9 9 10 10 11 12 13 13 13 12 13 13 13 13 13 13 13 13 13 12 12 11 11 11 10 9 9 9 9 9 8 6 5 9 11 11 11 13 13 14 14 13 14 14 12 10 15 14
5 9 8 11 6 4 8 10 11 12 13 13 12 12 13 13 13 13 12 11 9 8 7 8 9 8 9 9 9 9 9 9 9 9 8 8 8 9 9 9 10 10 12 12 13 13 13 13 13 13 13 13 13 13 13 13 12 12 11 11 10 9 8 7 8 8 7 7 6 4 6 6 9 11 11 12 13 13 12 13 13 14 14 14 15
5 8 9 11 10 7 6 8 9 9 13 12 12 13 13 13 13 13 13 12 11 10 8 8 8 8 8 8 9 9 8 8 8 8 8 8 8 7 8 8 9 10 11 12 12 13 13 13 13 13 13 12 12 13 13 12 12 11 11 10 10 9 8 6 7 6 7 5 5 4 5 6 7 10 10 11 12 12 12 12 12 12 12 13 14
5 8 9 12 11 11 5 7 10 10 12 13 13 12 12 12 12 12 12 12 11 11 9 9 9 8 8 8 8 8 8 8 8 7 7 7 7 7 7 8 9 10 11 11 11 11 12 13 12 12 12 11 11 12 11 11 11 10 10 9 8 9 8 7 6 7 4 1 4 3 4 5 6 6 9 10 11 11 11 12 12 12 12 11 11
5 6 9 11 10 11 6 7 10 11 12 12 13 12 13 12 11 11 11 12 11 10 10 9 9 9 9 8 8 8 8 8 8 7 6 6 7 7 7 8 8 9 10 10 10 11 11 12 11 11 11 11 11 11 10 10 9 9 9 8 7 7 7 8 7 5 5 7 3 3 3 4 5 4 7 8 9 11 11 12 12 12 12 11 11
4 5 7 10 10 10 6 6 8 10 12 12 12 12 13 12 11 10 10 10 10 10 9 8 8 9 9 8 8 8 7 7 7 7 6 6 6 7 7 7 8 9 9 9 9 10 11 10 10 10 11 10 10 10 9 9 8 8 7 7 6 6 7 6 6 5 7 2 3 4 3 4 4 4 8 8 9 10 10 11 11 12 12 12 12
5 7 7 9 9 10 6 6 8 9 12 12 12 11 12 12 11 10 10 10 9 9 9 8 7 8 8 8 8 7 7 7 7 6 6 5 6 6 7 7 8 8 9 9 8 8 9 9 10 10 10 10 9 9 9 8 7 6 6 5 5 5 6 5 5 3 2 2 2 2 3 3 3 4 7 8 10 10 11 7 8 10 12 11 10
6 7 7 8 8 8 5 5 7 9 13 13 12 12 12 12 11 11 10 10 10 9 9 8 8 8 8 8 8 7 7 6 6 6 6 5 5 5 6 7 8 7 7 7 6 7 7 8 9 9 10 10 9 9 9 8 7 6 5 5 4 5 5 4 2 2 0 1 2 3 4 9 2 4 7 6 10 12 11 11 9 9 8 9 10
4 5 6 6 8 9 4 5 6 6 10 11 12 12 12 11 11 11 11 11 10 10 9 9 8 8 8 8 7 7 7 6 6 6 6 5 5 5 6 7 7 7 7 6 5 6 5 6 9 9 10 9 9 8 7 7 7 6 6 5 4 5 5 3 6 1 0 1 1 2 3 5 2 4 7 8 10 11 10 9 10 10 11 11 10
2 2 3 4 6 4 3 4 3 4 7 8 11 11 12 11 11 11 11 10 10 10 10 9 9 9 9 9 7 8 7 6 6 5 6 5 5 5 5 7 8 8 7 5 5 6 9 9 9 9 8 8 8 7 7 7 7 6 6 6 5 5 4 1 3 1 1 1 1 1 1 1 2 6 6 7 9 9 9 9 9 10 9 10 10
2 1 1 2 5 4 1 1 1 3 5 8 9 11 11 11 11 11 10 10 10 10 10 9 9 7 7 8 7 7 7 7 7 7 6 6 6 5 6 6 7 7 7 8 8 9 7 7 8 8 8 8 7 7 7 7 7 7 7 6 5 5 2 5 1 1 1 1 1 1 1 2 2 6 6 6 8 8 7 8 8 8 8 9 9
2 1 2 3 3 5 1 2 1 0 2 5 7 7 9 10 10 10 10 10 9 9 9 8 9 9 8 7 7 7 7 6 7 7 7 7 6 6 6 7 6 6 7 7 8 8 9 8 8 8 8 8 7 7 7 7 7 6 7 7 6 3 0 1 2 1 1 1 1 1 0 0 3 6 1 4 6 6 6 6 7 7 8 8 9
2 0 2 2 3 5 2 2 2 1 1 4 6 6 7 8 9 8 10 9 9 8 9 9 7 8 8 7 7 7 6 7 7 7 8 7 7 7 7 7 6 5 5 7 8 7 8 9 8 8 8 7 7 7 6 7 6 6 7 7 7 6 8 2 1 2 1 1 1 1 0 1 7 5 0 1 2 5 4 5 6 6 7 7 7
4 2 1 2 2 3 5 3 2 3 2 2 5 7 7 7 7 7 7 8 8 8 7 7 6 5 7 7 7 6 5 7 5 4 2 5 6 7 7 6 5 5 5 6 7 8 9 9 8 8 7 7 7 6 6 7 6 6 6 7 6 7 7 8 2 1 1 1 1 1 0 2 8 3 4 4 5 3 4 5 6 6 6 6 7
6 3 2 1 1 2 4 5 4 1 3 3 3 4 7 6 6 6 6 6 6 7 6 6 5 5 5 5 5 2 3 4 7 7 7 5 7 6 5 6 5 5 6 5 7 8 9 9 8 8 7 7 7 7 6 6 6 6 6 6 7 6 5 9 1 1 2 2 1 1 1 2 7 6 4 4 4 5 4 5 5 6 6 5 5
7 7 5 3 2 2 3 4 5 6 8 5 2 3 5 8 7 7 6 6 7 6 5 6 5 5 4 4 3 4 4 5 4 4 4 3 3 4 4 5 5 4 5 6 9 9 9 9 8 8 7 7 7 7 7 7 6 6 6 6 6 6 5 8 2 1 2 1 0 1 1 9 8 5 7 8 4 3 3 4 5 5 4 4 4
7 7 6 6 5 3 2 3 4 6 9 9 9 6 3 6 8 7 6 5 6 7 6 6 5 4 3 2 2 3 4 3 6 5 7 3 4 2 3 3 5 3 5 9 10 10 10 9 9 8 7 7 7 7 6 7 6 6 6 6 6 5 4 5 2 2 1 0 1 2 5 11 9 3 5 4 3 4 4 4 5 4 3 3 3
6 7 6 6 5 4 3 2 3 5 7 8 8 9 5 4 4 4 6 8 5 4 6 6 5 5 3 3 3 2 2 4 6 6 6 5 4 7 5 3 6 4 6 9 10 10 11 10 9 9 8 7 7 6 7 7 6 7 6 5 4 6 3 2 2 2 2 2 3 2 8 10 10 7 4 4 4 4 5 4 4 3 2 1 2
4 6 7 6 6 4 4 3 3 4 6 7 7 8 6 4 4 6 8 7 7 7 5 2 2 3 4 6 5 3 5 4 5 4 6 6 5 3 5 5 6 7 8 10 10 11 12 11 9 9 8 7 6 6 6 6 6 6 5 4 5 3 2 2 2 1 2 2 3 3 12 11 9 8 6 6 4 5 3 4 3 2 2 2 3
6 5 5 7 6 5 5 4 3 4 5 5 5 5 6 5 9 8 7 8 7 5 6 5 3 3 0 4 6 5 4 4 5 3 4 5 5 6 5 6 5 5 9 9 10 11 12 11 9 10 8 7 3 1 3 5 5 4 3 3 4 2 2 2 2 2 2 2 3 7 11 12 8 7 6 4 3 3 3 2 3 3 3 1 2
6 6 5 7 6 5 6 5 5 4 5 6 5 6 6 7 9 8 6 5 9 9 8 6 6 5 6 4 4 4 4 4 3 3 3 1 3 7 7 6 6 4 7 8 9 11 11 11 9 9 9 7 2 1 2 1 1 4 3 1 1 2 2 2 2 2 2 3 3 9 10 11 9 6 5 4 3 2 2 2 2 3 3 4 4
6 6 6 5 7 6 6 5 5 5 4 4 5 5 5 5 6 6 6 4 4 5 7 6 5 6 5 5 5 5 5 5 6 5 2 3 2 3 3 4 8 6 7 6 8 9 11 11 8 9 7 2 1 1 1 1 1 1 1 1 1 1 1 2 2 2 2 2 2 9 9 10 10 8 6 4 3 3 3 4 2 2 2 2 2
6 6 5 6 8 8 6 5 5 4 4 4 4 5 4 4 5 5 6 6 3 1 2 5 4 5 7 6 6 6 6 6 6 5 5 4 4 4 4 3 5 6 8 6 6 6 6 5 5 4 1 2 2 1 0 1 1 1 1 1 1 1 1 1 2 2 2 1 3 6 7 9 10 9 9 7 5 3 3 4 3 3 2 3 3
6 6 8 7 9 8 7 6 5 3 3 3 4 3 4 4 4 4 5 5 5 4 4 4 3 2 3 6 6 6 6 6 6 6 6 5 5 4 3 4 4 3 4 5 5 5 5 4 3 2 1 1 1 1 0 1 1 1 1 1 1 1 1 1 1 2 2 2 2 6 5 7 8 9 10 9 8 7 4 3 5 5 4 3 4
6 7 7 7 8 9 8 6 4 2 4 4 3 3 4 4 4 2 4 4 3 4 3 3 3 1 3 3 4 5 6 6 6 6 6 5 4 3 3 3 5 4 4 6 6 6 5 4 4 1 1 2 2 2 2 1 1 0 0 0 1 1 1 1 1 1 2 2 1 3 5 6 7 8 8 9 10 9 8 5 5 6 7 5 4
6 8 7 7 7 9 8 6 2 2 4 5 5 4 4 3 2 4 4 3 1 2 4 5 3 2 2 2 4 5 5 6 4 5 5 5 5 4 5 5 5 5 4 2 1 2 5 5 3 2 3 2 3 2 2 2 1 1 1 1 1 1 1 1 1 1 1 2 2 3 4 4 6 7 8 8 9 10 11 13 12 8 7 9 5
7 8 7 7 8 8 8 6 3 3 4 5 5 4 3 3 1 3 2 2 2 1 3 3 4 3 4 3 3 3 2 3 4 5 6 6 5 5 5 6 5 3 3 3 4 3 3 4 3 3 3 3 2 2 2 1 1 1 1 1 1 2 2 2 2 1 2 2 2 2 2 3 5 6 7 8 9 9 11 12 12 12 6 8 7
8 8 8 7 8 9 8 7 4 2 5 6 5 4 3 2 5 3 4 6 7 6 8 6 6 6 6 6 4 4 3 4 2 3 3 5 3 4 4 3 2 1 2 3 3 4 5 5 2 1 0 2 2 1 1 1 1 1 1 1 1 2 2 3 3 3 3 3 2 1 4 1 2 4 5 7 7 9 10 11 12 11 11 8 8
8 9 8 7 7 8 8 7 4 1 4 7 6 6 7 8 8 9 9 8 8 8 9 8 7 8 8 9 8 8 7 6 5 4 3 2 4 3 4 2 2 1 2 4 1 1 1 1 0 1 1 2 2 1 2 2 2 2 2 1 1 2 2 2 2 3 3 3 3 3 1 4 1 2 3 4 6 7 8 10 11 12 12 12 13
8 9 7 8 7 8 7 8 7 8 8 9 8 10 9 9 9 9 9 8 9 8 9 8 8 7 8 8 8 7 6 6 7 5 5 5 6 6 6 6 6 5 3 4 3 2 1 0 1 1 2 2 2 1 1 2 3 1 1 1 1 2 3 2 3 2 3 3 3 3 4 2 4 2 3 3 5 5 7 8 9 11 12 12 12
6 7 8 8 8 8 7 9 9 10 11 11 10 10 10 10 10 9 8 8 9 9 10 9 7 7 9 9 9 8 7 6 6 7 7 6 6 6 5 5 4 4 4 5 4 3 3 2 3 4 3 3 3 1 1 2 3 2 2 2 3 3 3 4 4 4 4 3 3 3 3 3 3 4 5 3 4 4 5 6 7 8 10 11 12
6 6 8 8 7 5 4 8 10 12 12 11 11 10 9 8 8 8 8 10 9 9 9 8 8 8 8 10 10 11 8 7 8 9 7 6 7 8 6 5 5 5 6 6 5 4 4 5 4 2 3 3 4 3 3 3 3 2 2 2 2 3 3 4 4 5 5 5 4 4 4 4 3 4 2 5 5 3 3 5 6 7 8 9 10
5 6 7 7 8 7 5 8 8 10 10 10 10 10 9 10 8 7 8 9 8 9 8 8 8 7 8 9 11 11 10 9 9 8 8 7 7 7 8 7 6 5 6 6 5 5 5 5 3 4 3 2 2 3 4 4 5 5 4 3 2 3 3 3 4 4 4 4 4 4 4 4 4 4 4 4 4 6 2 3 5 6 7 7 8
7 6 6 6 8 8 7 9 10 12 11 10 10 10 10 10 10 9 9 9 8 9 8 7 7 7 8 9 10 10 9 11 10 9 8 8 8 9 8 6 6 6 6 6 6 6 4 3 2 2 1 1 1 2 1 1 1 2 3 3 3 3 3 4 4 4 3 3 3 4 4 4 4 4 5 5 5 2 2 3 5 6 6 7 8
7 7 7 6 8 8 8 10 10 11 11 12 12 12 11 11 11 10 10 10 9 8 7 7 8 8 8 8 8 8 9 10 10 9 7 8 8 8 7 7 6 6 5 6 6 6 4 3 3 3 2 1 2 2 2 1 2 3 3 4 4 3 4 3 3 3 2 3 3 3 3 3 3 4 4 4 5 5 2 1 4 6 6 7 8
6 7 7 6 7 7 7 7 8 10 9 9 10 9 10 10 10 9 10 10 10 8 8 7 8 8 7 8 8 8 8 10 10 8 7 8 8 8 8 8 6 5 6 6 6 4 5 4 5 5 5 4 4 5 4 4 3 3 3 4 4 3 3 3 3 3 3 3 3 3 3 3 3 3 3 4 5 5 5 2 3 7 7 6 7
5 7 7 6 6 6 6 6 7 8 9 10 11 11 12 11 10 10 11 10 9 9 8 8 8 7 8 8 8 8 8 9 9 8 7 7 8 8 7 8 7 7 7 8 8 8 7 6 6 5 5 5 4 3 3 3 3 3 3 3 3 4 3 2 3 2 2 3 3 4 2 3 3 3 3 3 3 4 4 5 5 5 4 4 7
6 6 7 7 7 6 6 6 6 6 6 7 7 7 7 7 9 9 11 10 9 9 10 9 9 9 9 9 10 9 9 9 9 8 8 8 7 7 7 7 7 8 8 8 7 7 8 7 8 6 5 4 4 3 3 4 3 4 3 3 4 3 2 2 1 1 1 2 3 2 2 2 2 3 3 3 3 3 4 4 5 5 5 5 6
7 8 8 9 9 7 6 7 6 5 4 5 6 6 7 8 9 10 10 9 9 9 10 10 10 10 11 11 11 10 10 11 11 10 9 9 9 8 8 9 8 8 8 8 8 8 7 6 4 4 5 5 6 6 6 4 4 3 2 4 3 3 1 1 1 1 1 3 2 2 1 2 3 3 3 2 3 3 4 4 4 4 5 5 5
8 8 9 8 8 8 8 6 5 6 7 7 7 8 8 8 9 8 8 8 8 9 10 9 9 9 11 11 11 11 11 11 11 10 11 10 10 9 10 10 9 9 9 9 10 9 10 8 6 3 5 5 6 7 7 6 3 6 7 6 3 2 4 2 2 1 3 3 2 1 2 2 2 2 2 3 2 2 3 3 4 4 5 5 5
6 8 7 8 8 8 8 7 7 7 8 7 8 8 8 9 10 9 10 10 10 9 10 10 10 11 11 12 11 11 11 11 11 11 9 10 10 10 9 9 10 9 9 10 10 11 10 10 10 8 5 5 5 7 9 9 6 7 5 5 3 7 1 3 2 5 7 2 0 1 2 1 2 2 3 3 3 3 2 3 4 4 5 5 5
6 7 6 7 6 7 7 7 8 8 8 9 10 11 12 12 12 12 12 11 10 10 11 11 11 12 13 12 11 11 12 11 12 11 10 10 11 10 9 9 9 9 9 9 10 10 10 9 9 10 8 6 6 7 8 8 7 8 5 5 5 3 5 2 10 10 6 2 1 3 2 2 3 4 4 4 5 5 5 4 4 4 4 5 5
7 6 6 5 4 6 7 8 8 8 7 8 9 9 11 12 11 12 11 12 10 10 10 11 10 11 11 11 10 11 11 11 11 12 10 11 11 10 10 9 10 10 9 9 10 10 10 9 10 9 10 7 7 6 7 8 9 8 6 5 3 3 5 8 11 8 4 4 7 6 2 4 7 7 6 5 6 7 6 5 4 5 5 5 5
7 6 5 5 5 5 6 8 7 6 6 5 3 3 6 8 9 9 10 9 10 9 10 9 9 9 10 8 10 11 11 11 11 11 11 10 11 11 10 10 10 9 9 9 9 9 11 11 10 9 10 10 6 7 7 6 6 9 7 6 3 4 7 9 8 6 8 8 3 4 6 6 6 6 6 8 9 8 7 7 7 7 6 6 6
5 4 4 5 6 6 7 7 6 6 5 5 5 5 7 8 10 10 10 10 12 9 8 8 8 8 8 9 9 10 10 11 11 11 11 11 10 10 10 10 10 9 9 9 10 10 9 10 9 9 9 8 9 8 9 8 5 7 6 6 4 3 4 6 6 9 9 4 4 6 6 6 5 8 10 9 9 9 8 8 9 8 8 7 6
4 4 5 5 6 7 7 7 6 6 5 5 5 5 8 8 10 11 10 10 11 11 10 9 8 8 9 9 8 9 10 10 10 10 10 10 9 10 10 9 9 9 9 9 9 9 8 8 9 9 8 8 9 8 8 8 8 7 7 7 5 5 4 3 4 5 7 11 11 6 3 6 9 9 8 8 10 10 10 10 9 9 9 9 8
4 4 4 4 5 7 8 9 9 8 7 7 7 7 8 8 9 10 12 10 10 10 8 8 8 8 10 8 8 8 9 10 10 10 10 10 9 9 9 9 9 9 8 8 8 8 9 9 9 9 9 8 8 7 7 7 7 7 7 7 7 7 6 4 2 4 6 9 10 9 11 7 7 6 6 9 8 9 10 11 10 10 9 8 8
3 4 4 4 5 6 8 10 10 7 7 8 8 9 8 8 10 11 14 10 9 9 8 8 8 8 9 9 8 7 7 8 9 10 9 10 9 9 9 9 9 8 7 7 7 8 8 7 8 8 8 8 6 7 7 6 6 6 6 6 6 6 5 5 5 7 6 6 9 11 11 14 12 6 6 6 7 10 10 9 10 10 9 9 8
3 4 4 5 5 6 8 11 9 7 7 8 8 9 8 8 9 10 12 12 10 10 9 9 8 8 8 8 7 7 7 7 7 8 9 8 8 8 8 8 7 7 7 8 7 7 6 7 6 7 8 8 6 6 6 6 5 5 6 5 5 6 6 6 7 7 8 7 10 10 11 11 12 13 5 3 5 8 7 7 8 8 9 9 8
Wind_Direction
200 181 168 155 179 179 167 165 159 156 154 152 149 143 136 129 124 120 122 120 124 127 126 126 123 123 122 116 112 108 110 106 100 88 80 77 79 74 83 90 94 90 89 87 83 82 78 76 77 78 69 64 60 56 53 52 51 51 51 52 51 53 53 53 52 52 49 38 46 55 59 61 63 65 66 64 62 55 44 34 24 67 65 53 53
162 180 172 165 175 181 168 167 161 159 158 155 151 147 142 132 127 125 123 122 123 126 129 128 128 126 124 117 113 114 108 101 97 88 80 79 72 83 90 88 90 93 91 87 83 81 79 77 74 70 66 65 61 56 53 51 48 48 47 48 49 51 54 56 55 50 43 44 43 49 55 63 63 64 68 65 60 57 52 46 39 51 59 62 56
173 166 166 163 177 177 170 166 165 161 161 156 153 149 142 135 131 131 129 129 126 130 137 132 130 127 127 123 124 120 113 104 95 87 84 75 71 79 94 91 93 95 96 92 89 85 82 77 72 67 63 59 58 54 50 48 45 43 43 44 46 47 53 56 57 51 45 42 28 80 91 71 60 63 66 68 64 59 55 56 52 49 54 53 56
173 164 167 148 172 187 167 167 166 160 160 157 154 149 144 140 138 139 138 135 137 137 143 140 139 138 131 130 132 128 120 112 105 98 94 85 76 76 92 98 99 98 97 98 96 91 83 77 72 66 60 56 54 52 47 44 42 38 36 38 41 43 48 55 57 54 47 37 10 314 72 74 76 65 68 67 69 64 59 56 56 57 56 53 49
161 159 167 162 174 173 172 163 161 164 155 157 154 150 148 144 144 144 142 142 143 144 150 152 148 142 135 136 135 132 126 119 115 109 98 90 87 88 101 111 108 104 101 99 98 92 85 77 70 65 60 55 49 48 44 40 37 36 33 31 35 38 40 50 59 56 55 33 338 313 60 71 77 69 73 76 73 69 65 62 60 58 55 57 52
166 156 166 168 171 164 162 161 163 164 156 160 156 153 151 148 149 146 146 146 147 149 152 161 150 144 146 142 137 133 128 124 115 111 107 93 91 91 100 116 114 110 106 100 92 90 88 81 73 67 62 54 49 45 42 36 31 29 29 30 32 38 43 48 56 46 31 356 262 45 51 56 70 75 74 77 78 72 66 62 59 55 52 51 58
176 160 167 172 176 165 156 162 164 165 160 157 159 158 151 151 151 151 148 148 149 150 154 159 154 147 151 147 138 135 132 128 116 112 111 96 89 92 99 113 118 111 106 100 97 90 84 81 75 70 66 57 49 42 37 33 28 25 24 25 29 41 52 56 54 32 342 273 40 38 54 45 64 91 84 80 74 76 71 65 58 54 50 45 39
177 169 168 173 183 130 163 155 162 162 158 159 161 161 153 153 155 155 151 149 150 152 154 162 159 152 151 146 142 141 138 132 123 117 117 108 100 99 99 109 113 113 108 104 98 95 94 93 86 76 68 60 50 43 37 27 21 20 21 23 26 44 60 64 59 42 320 359 21 29 34 38 59 78 87 76 70 66 72 69 62 56 52 46 31
173 175 169 175 174 112 155 169 158 160 163 159 161 162 158 157 157 157 155 153 155 154 156 162 170 155 153 152 147 144 141 136 131 126 121 113 111 107 103 104 107 107 103 101 97 95 88 87 87 79 70 59 51 46 36 24 17 13 17 24 32 48 67 70 68 271 222 44 37 45 27 41 41 87 72 66 68 59 37 46 89 59 56 44 41
164 170 171 178 180 123 165 175 163 166 164 165 162 163 163 159 161 160 158 159 157 158 160 165 173 164 162 158 153 151 147 141 142 136 124 117 110 111 109 113 115 113 108 103 103 84 75 83 84 75 66 57 50 40 33 24 12 11 10 34 42 51 61 72 129 226 53 147 80 44 25 327 55 56 76 84 79 73 65 56 56 51 52 48 41
151 166 176 176 173 136 165 175 162 170 176 163 166 168 165 163 165 163 165 164 161 163 165 170 172 174 169 163 160 155 156 153 148 141 134 126 121 121 113 119 122 119 118 107 92 83 84 84 81 71 58 52 48 39 31 22 18 9 15 35 53 60 54 62 277 148 227 341 56 76 99 279 5 60 88 88 88 83 68 57 51 51 45 41 37
124 141 174 186 110 135 167 163 163 169 157 174 172 170 168 169 169 167 170 167 167 169 173 172 178 181 180 173 168 163 165 161 151 151 147 144 143 137 126 130 131 128 128 142 77 38 80 92 81 74 67 60 49 41 30 22 19 16 24 39 62 70 59 350 284 34 72 34 44 340 89 203 50 88 81 84 88 77 68 58 52 46 38 31 30
10 37 62 195 206 131 258 141 139 179 156 178 177 174 174 172 171 173 173 176 173 179 176 176 180 186 189 182 170 178 175 165 165 158 159 159 159 149 141 137 132 130 111 83 69 60 62 86 86 74 68 59 50 42 34 25 19 18 28 41 56 77 95 292 255 156 127 94 94 229 148 116 85 67 98 85 73 71 62 60 56 42 35 30 24
23 222 197 209 199 68 1 312 303 80 190 176 189 177 179 180 178 179 180 182 184 177 184 188 185 183 191 197 180 192 179 169 180 170 170 166 164 157 147 136 136 114 97 90 69 77 85 90 87 80 67 56 49 42 36 31 23 23 29 39 50 51 301 227 26 70 80 140 127 42 189 285 83 359 72 78 63 56 56 56 56 48 38 33 27
40 231 212 235 223 216 89 301 302 253 256 197 187 191 195 188 188 186 189 191 187 181 188 190 197 193 189 196 194 204 182 178 187 187 175 168 168 161 150 147 124 126 102 81 69 77 89 91 84 77 65 57 46 41 40 37 33 28 30 34 36 20 335 10 31 83 103 91 128 215 80 260 22 331 341 323 76 56 49 35 52 47 38 36 41
47 59 211 209 241 220 222 180 279 291 267 258 202 196 197 206 197 196 199 193 197 194 182 191 193 202 199 204 205 213 187 186 188 208 205 180 170 166 164 155 135 119 95 77 84 100 97 91 89 80 71 56 48 41 42 39 36 34 32 37 33 21 5 326 57 37 88 94 93 275 162 55 15 358 262 40 62 49 33 56 55 39 32 41 50
43 51 85 61 306 274 234 229 219 275 285 302 283 206 205 210 204 208 206 187 190 198 190 183 189 199 202 213 202 199 195 174 190 187 198 192 178 171 168 154 146 126 104 94 102 107 100 99 94 85 76 63 48 45 43 39 33 32 37 33 33 36 7 322 47 26 20 46 2 314 36 30 17 13 5 135 83 55 57 48 37 29 32 46 55
45 42 42 37 11 323 287 264 240 232 223 206 232 274 237 202 211 216 209 196 190 184 186 177 184 206 194 196 186 135 170 160 160 174 195 223 215 166 160 159 144 118 100 107 112 112 110 106 98 90 79 70 60 50 48 39 34 34 31 30 27 20 11 318 12 23 34 26 253 317 262 17 340 24 42 42 38 17 11 23 24 19 19 45 50
49 44 45 30 21 344 297 266 256 242 235 231 227 202 229 246 199 207 230 240 214 178 175 176 178 191 199 185 157 157 151 140 149 169 169 150 255 159 143 137 137 161 135 125 122 121 119 108 104 95 86 76 65 61 52 45 43 34 35 34 20 5 326 283 15 3 299 220 334 289 30 345 350 340 7 355 6 348 344 7 21 26 44 60 62
41 31 29 29 12 356 332 285 253 239 236 237 236 236 194 216 230 218 205 205 230 238 179 176 183 184 169 159 126 182 166 168 166 157 159 178 204 232 138 153 156 181 146 135 132 132 121 117 110 102 90 80 72 65 58 53 47 41 29 22 11 293 259 4 357 335 310 20 331 311 13 343 345 324 314 331 342 333 331 3 16 27 24 19 35
27 32 24 9 0 2 350 312 268 244 242 240 239 240 217 196 190 205 198 205 198 193 227 1 211 161 173 154 163 208 231 220 184 194 156 192 171 251 178 178 176 184 158 144 145 134 121 122 120 108 98 93 92 87 65 58 57 50 34 8 297 261 28 338 335 342 358 343 327 25 355 347 337 321 315 329 336 339 0 349 345 5 337 348 29
6 5 18 9 357 356 351 326 295 251 240 240 235 233 232 184 231 215 236 208 171 202 193 210 193 227 175 183 230 228 238 244 241 190 192 185 180 191 212 167 134 155 152 148 145 129 126 126 127 117 119 114 166 206 114 96 74 53 55 300 262 14 9 348 328 344 0 11 331 20 349 346 337 319 313 325 327 345 358 338 323 321 332 356 317
5 356 1 3 360 343 346 334 316 287 248 239 234 230 235 229 237 240 231 226 215 185 214 197 220 207 233 242 251 257 247 257 276 10 307 170 262 186 200 186 142 167 167 148 136 133 135 135 136 135 125 142 175 37 35 354 116 157 212 228 5 14 3 344 326 343 1 24 322 14 353 349 345 323 316 320 326 340 323 321 334 330 336 345 329
353 348 342 354 355 345 339 326 315 308 267 243 237 233 225 231 237 229 234 226 279 237 207 205 213 219 212 225 230 221 232 242 131 188 166 230 195 162 289 285 170 167 159 149 140 150 143 141 144 133 141 169 78 60 36 10 347 356 358 345 2 21 349 349 344 339 329 54 24 11 354 347 347 341 322 313 319 326 311 296 303 292 294 338 332
343 326 353 354 354 347 338 326 321 277 290 237 243 245 235 231 244 231 229 237 219 78 260 232 212 233 236 228 227 227 223 226 216 199 222 225 232 232 179 209 245 194 167 204 190 162 175 169 159 181 144 164 170 94 24 25 354 336 1 355 354 354 341 345 338 328 329 338 59 15 359 348 341 340 341 328 312 296 298 300 297 284 293 298 319
349 355 354 349 354 347 343 333 310 280 256 233 239 252 267 236 237 245 255 262 261 241 228 233 249 282 298 273 236 227 228 241 232 229 227 218 219 226 216 194 211 238 208 231 225 214 241 216 211 192 170 182 161 143 127 14 14 336 356 11 327 320 320 338 333 323 323 328 60 25 6 350 340 338 337 336 330 314 289 296 296 286 278 267 290
354 358 348 349 353 350 347 335 304 268 207 200 195 219 229 237 242 276 262 267 289 308 294 257 235 224 261 258 248 243 246 239 241 244 238 238 243 233 204 181 191 179 201 234 241 242 255 242 249 199 171 172 179 173 149 152 135 185 250 219 299 293 296 301 304 310 313 314 52 65 8 351 345 337 333 328 328 324 312 283 269 284 277 261 236
358 355 355 345 340 338 342 349 336 235 174 170 172 183 201 223 236 236 235 238 185 321 295 344 358 33 11 314 259 262 263 253 241 239 231 233 231 218 206 194 202 212 202 195 228 258 244 236 208 191 175 190 207 192 171 162 166 179 206 242 261 276 282 297 293 295 288 293 299 101 1 351 348 339 332 324 321 321 318 323 319 285 281 292 279
3 0 347 342 333 332 341 15 51 177 141 145 152 165 177 174 115 239 197 221 253 123 75 56 45 47 44 21 340 282 273 294 246 230 233 236 229 221 219 233 238 236 202 189 179 164 200 227 220 213 191 211 214 204 191 155 205 147 319 302 283 299 296 287 295 292 284 286 289 104 27 1 342 341 337 331 322 317 316 320 324 325 273 279 285
3 356 352 341 334 332 349 11 37 67 123 126 125 128 122 181 171 63 43 48 36 45 50 35 37 28 33 18 3 343 322 287 258 237 248 226 241 238 247 250 220 201 217 232 200 195 211 213 208 70 44 245 243 231 229 186 206 189 215 302 296 311 316 311 312 310 315 300 294 203 148 331 339 336 338 332 329 325 321 318 322 323 318 273 260
359 358 354 342 329 337 359 17 37 59 100 77 89 70 56 47 43 53 40 37 48 48 53 45 41 40 34 39 29 24 14 17 359 338 283 290 225 223 251 252 214 221 263 276 252 238 269 287 87 128 202 257 264 229 242 245 233 203 183 222 282 289 292 298 304 312 309 314 312 312 227 183 231 289 312 324 327 328 323 322 319 320 320 322 311
1 356 346 338 340 349 15 29 33 40 67 65 61 66 61 54 53 58 53 51 55 55 55 51 49 41 34 38 38 28 23 40 33 34 15 17 16 17 26 27 11 8 0 354 340 319 285 44 34 353 331 288 270 252 287 273 278 286 1 300 296 303 305 308 296 289 291 299 299 305 308 294 191 242 281 301 321 322 323 321 323 325 324 323 314
357 348 347 349 354 345 22 40 53 60 65 66 66 68 67 61 58 54 53 53 55 51 51 43 43 42 41 40 46 41 43 44 56 57 59 55 53 58 50 37 36 31 31 36 31 30 21 360 13 358 335 315 320 352 312 288 308 345 344 352 327 318 324 313 309 303 308 303 300 299 298 296 302 201 208 252 292 304 314 316 322 322 323 323 320
345 348 356 8 349 317 27 56 61 64 67 68 71 71 65 67 66 62 57 54 52 54 52 47 39 40 42 46 49 46 43 46 57 64 59 59 59 58 52 44 41 52 58 56 54 40 45 37 20 347 28 360 350 323 325 321 331 339 331 11 315 323 324 311 312 317 316 310 312 307 296 299 297 301 284 209 221 267 289 312 310 312 317 322 322
359 2 6 356 7 3 27 66 65 77 77 78 78 77 74 71 69 64 60 62 61 59 47 42 42 35 37 37 41 44 39 43 56 57 48 50 57 55 44 37 36 49 63 67 75 65 59 59 37 33 14 23 358 15 17 1 348 340 336 322 314 316 293 291 294 297 295 304 302 297 300 297 297 302 289 305 190 197 248 299 304 304 309 315 320
6 352 345 9 28 21 27 73 68 70 71 74 78 79 78 76 70 68 67 66 65 61 52 45 43 42 43 39 33 40 36 46 51 51 54 60 62 59 52 46 44 53 53 58 61 64 74 79 74 84 58 40 332 7 16 1 325 301 297 295 287 268 272 265 261 262 264 277 285 291 299 301 303 311 322 297 303 308 167 302 313 312 312 312 307
358 352 352 21 42 31 29 51 63 71 76 76 75 76 78 74 73 70 68 65 61 61 56 52 50 46 42 40 27 33 35 41 45 42 53 50 59 62 59 62 66 68 69 65 60 58 66 92 74 44 20 17 31 43 46 5 324 304 294 286 274 267 266 271 265 267 258 262 267 273 274 286 292 293 291 309 310 309 154 179 306 309 306 305 303
1 6 8 25 45 42 39 38 61 73 78 76 78 80 79 79 75 70 66 62 58 57 54 50 52 49 45 41 28 34 31 40 45 48 56 54 55 55 45 33 33 42 52 59 64 65 56 49 63 42 25 26 33 18 6 345 315 291 283 281 281 272 279 278 279 283 282 294 292 290 293 297 288 299 298 296 303 300 310 271 228 252 252 265 289
14 18 23 30 48 50 57 49 59 76 85 86 87 84 82 77 73 68 62 61 57 52 50 51 47 44 41 36 35 36 32 36 46 48 56 58 58 55 52 39 43 45 41 35 32 32 42 40 47 57 56 52 47 26 350 311 298 283 275 259 255 258 271 274 290 298 316 318 310 302 301 299 303 290 293 296 301 312 309 309 308 309 274 209 277
29 28 34 35 41 52 62 61 54 64 81 92 93 88 82 78 78 73 64 54 51 49 45 46 40 40 33 34 35 38 33 32 35 42 48 51 55 52 53 47 47 49 48 45 39 31 22 26 33 30 48 59 43 6 340 322 291 254 249 262 252 270 270 283 285 317 329 336 328 342 334 330 320 332 324 315 310 304 297 298 296 293 295 275 244
38 35 41 36 32 37 53 49 26 28 65 80 75 81 84 85 71 64 67 57 56 53 52 44 42 40 35 37 36 35 32 33 33 36 41 47 47 46 45 43 46 49 51 48 43 41 34 28 33 42 36 43 33 8 2 331 328 332 279 249 252 221 183 188 158 134 5 350 352 345 12 357 5 357 352 330 310 296 306 302 301 300 303 305 287
36 39 41 37 34 37 43 35 31 44 50 57 72 69 63 68 83 75 75 64 59 56 55 46 43 41 39 37 36 34 35 36 31 34 40 41 46 46 43 41 42 48 50 46 41 38 35 32 17 43 58 41 41 12 4 338 8 355 330 328 270 206 162 155 136 71 349 5 3 21 360 11 24 1 340 322 301 297 306 315 313 307 302 301 300
53 50 45 49 44 46 41 37 41 48 47 53 68 75 78 80 86 90 86 83 69 69 68 60 53 51 45 41 38 37 36 38 35 35 36 37 43 47 45 43 42 41 47 44 39 38 32 31 30 21 14 51 42 32 18 15 354 333 279 276 339 336 195 139 124 335 328 331 167 359 3 8 28 345 328 315 327 335 330 315 307 301 301 300 300
55 54 45 52 55 55 47 50 52 54 60 61 75 81 85 89 88 91 88 85 87 79 73 65 59 55 51 47 44 43 43 44 38 40 43 41 41 44 44 42 42 41 45 47 40 36 31 29 29 28 16 33 32 35 31 24 18 356 6 342 306 304 315 76 350 315 299 294 281 342 9 358 351 342 328 331 342 333 319 311 299 292 293 292 294
49 40 30 38 51 60 64 63 63 61 68 81 87 97 103 100 102 100 98 95 85 77 73 63 59 59 58 47 42 43 45 47 44 43 44 45 43 42 43 43 44 42 45 47 45 38 31 29 25 32 26 17 32 29 38 33 34 24 3 342 338 308 2 336 336 317 92 324 312 335 352 336 337 340 336 336 330 320 315 308 301 294 283 285 281
48 33 28 36 48 64 71 78 81 76 70 58 62 109 111 114 117 110 99 88 78 66 63 65 60 57 57 55 49 45 45 46 45 44 43 43 44 41 41 43 42 41 41 44 43 40 33 30 26 27 28 21 16 32 26 28 44 33 28 29 6 332 326 327 319 315 327 308 343 329 317 332 342 350 330 319 318 319 317 311 309 305 297 289 286
50 40 51 57 65 71 70 74 81 83 71 75 65 77 79 79 83 85 91 94 96 81 81 77 75 69 64 58 54 46 42 46 43 42 41 40 42 39 40 41 41 41 39 40 38 34 32 26 21 27 27 23 20 35 26 14 22 35 21 20 14 347 327 322 328 321 318 335 326 326 321 335 345 330 323 320 323 321 320 316 312 309 307 296 290
52 56 59 59 67 71 77 80 80 80 74 77 72 75 92 91 93 91 88 89 92 99 90 81 77 75 70 61 58 51 45 44 46 42 40 39 38 39 37 39 41 38 37 40 37 31 31 30 27 26 27 29 25 26 25 20 18 13 8 9 5 350 330 298 310 318 308 309 312 312 311 331 323 316 318 330 327 324 319 314 310 308 307 306 301
49 54 59 62 71 76 80 83 82 80 74 77 86 81 88 95 97 100 95 90 95 96 94 89 83 77 74 65 60 57 53 48 45 44 40 39 38 39 38 39 39 37 36 38 36 33 33 30 26 27 26 28 29 20 22 21 17 13 360 5 3 359 350 359 332 329 320 310 305 319 315 311 298 307 327 319 319 326 320 316 313 306 302 302 301
59 67 74 78 78 82 85 85 79 78 80 82 86 86 86 93 94 98 104 105 104 100 96 91 84 78 73 67 60 57 52 51 46 42 40 39 37 36 38 36 37 35 35 34 31 30 28 28 27 27 22 26 27 27 27 15 13 12 6 357 1 356 353 352 350 340 324 300 303 313 317 320 318 313 308 297 322 323 311 310 310 311 310 309 309
80 81 82 85 85 88 92 86 82 84 81 83 85 82 81 86 96 100 104 107 107 105 101 90 87 81 77 70 66 61 55 53 49 45 40 36 39 38 37 38 36 35 32 30 26 22 21 22 23 26 28 20 15 7 14 17 1 9 6 6 2 360 350 344 338 339 328 321 315 311 314 315 312 313 317 287 297 303 300 305 306 310 312 314 316